Location: Trebic
(49.2170°N, 15.8830°E)
Time: 00:46:22
(UTC+02:00)

Transit 4A - Pass Details

Date: 24 July 2019
Orbit: 863 x 981 km, 66.8° (Epoch: 18 August)

Event Time Altitude Azimuth Distance (km) Brightness Sun altitude
Exits shadow 03:39:45 - 255° (WSW) 2,827 10.0 -12.6°
Reaches altitude 10° 03:40:03 10° 256° (WSW) 2,728 9.9 -12.5°
Maximum altitude 03:45:54 36° 322° (NW) 1,515 9.1 -11.9°
Drops below altitude 10° 03:51:45 10° 28° (NNE) 2,736 11.8 -11.3°
Sets 03:54:34 0° 37° (NE) 3,678 13.2 -11.0°
